Dauntless Aviation
Airports Europe France
LFIY

Saint Jean d'Angely

FRANCE

Airport Info
Suggest Updated Information for this Airport

Location

Latitude / Longitude: 45°57'59"N / 0°31'31"W
  45°57.984'N / 0°31.518'W
  45.9664 / -0.5253

Runway Information

Runway 10 /28

Dimensions: 2789 x 164 ft.
Surface: U
 
Runway 10
Runway 28
Latitude: 45.966636 45.965728
Longitude: -0.528086 -0.518369
Elevation: 243 ft. 243 ft.
Runway true heading: 95.7 275.7
 

Instrument Procedures

IAPs (Instrument Approach Procedures)

  Visual Approch Chart
Satellite photo at:
Airport distance calculator
From:
Weather Reports

METAR

LFBG
20.0nm SE
LFBG 270600Z AUTO 00000KT CAVOK 15/14 Q1014
LFBH
27.2nm W
LFBH 270600Z AUTO 02003KT CAVOK 14/13 Q1014 NOSIG
LFBU
34.5nm E
LFBU 270600Z AUTO VRB03KT CAVOK 15/12 Q1014 NOSIG

TAF

LFBG
20.0nm SE
TAF LFBG 270500Z 2706/2806 05005KT CAVOK PROB40 TEMPO 2712/2717 3000 SHRA BKN030CB PROB30 TEMPO 2800/2806 4000 SHRA SCT040TCU
LFBH
27.2nm W
TAF LFBH 270500Z 2706/2806 32008KT CAVOK PROB40 2706/2707 3000 BR BECMG 2707/2709 SCT040 OVC090 TEMPO 2712/2716 4500 -SHRA BKN035TCU
LFBU
34.5nm E
TAF LFBU 270500Z 2706/2806 VRB02KT CAVOK BECMG 2715/2717 32006KT
Safelog

 

Dauntless Aviation

© 2007-2016 Dauntless Aviation, all rights reserved
Information provided via PilotNav comes from a variety of official and unofficial data sources. As errors are possible, do not use PilotNav for primary flight planning purposes. Verify any information that you receive via PilotNav with current and canonical charts and other official documents. The material in this database is subject to database copyrights held by Dauntless Aviation and may not be copied without the express permission of Dauntless Aviation - licenses for use of part of all of this data are available for purchase; enquire via the Dauntless Aviation helpdesk. A number of mechanisms and markers exist in the database to protect against and identify infringement / copyright. Automated queries against this website are stictly prohibited, and all activity is logged and analyzed.